Flag for U.S.A. Weather past 2 weeks in San Francisco, California, U.S.A.

Now
62 °F

Scattered clouds.


Feels Like: 62 °F
Forecast: 53 / 64 °F
Wind: 22 mph from West

Location: San Francisco International Airport

Current Time: May 28, 2015 at 2:26:46 PM

Latest Report: May 28, 2015 at 1:56 PM


Visibility: 10 mi

Pressure: 30.04 "Hg

Humidity: 65%

Dew point: 50 °F

Location of San FranciscoLocation

Historic Weather in San Francisco — Graph

°F

San Francisco temperature yesterday

Maximum temperature yesterday: 64 °F (at 1:56 PM)
Minimum temperature yesterday: 54 °F (at 5:56 AM)
Average temperature yesterday: 58 °F

Past Weeks' High & Low Weather Summary

 TemperatureHumidityPressure
High66 °F (May 21, 2:56 PM)90% (May 21, 6:56 AM)30.12 "Hg (May 21, 6:56 AM)
Low52 °F (May 24, 4:56 AM)45% (May 13, 12:56 PM)29.79 "Hg (May 14, 4:56 PM)
Average57 °F73%30.00 "Hg
* Reported May 13 12:56 PM — May 28 12:56 PM, San Francisco, Weather by CustomWeather, © 2015

Note: Actual official high and low records may vary slightly from our data, if they occured in-between our weather recording intervals... More about our weather records

Advertising

San Francisco weather history for previous 24 hours

 ConditionsComfort  
Time TempWeatherWind HumidityBarometerVisibility
12:56 PM
Thu, May 28
60 °FPartly sunny.17 mph67%30.05 "Hg10 mi
11:56 AM58 °FLow clouds.15 mph72%30.06 "Hg10 mi
10:56 AM56 °FMore clouds than sun.14 mph77%30.06 "Hg10 mi
9:56 AM56 °FLow clouds.8 mph81%30.06 "Hg10 mi
8:56 AM54 °FLow clouds.13 mph86%30.06 "Hg10 mi
7:56 AM53 °FLow clouds.9 mph86%30.05 "Hg10 mi
6:56 AM53 °FLow clouds.10 mph86%30.04 "Hg10 mi
5:56 AM53 °FLow clouds.14 mph86%30.03 "Hg10 mi
4:56 AM53 °FLow clouds.9 mph89%30.03 "Hg10 mi
3:56 AM54 °FLow clouds.14 mph83%30.02 "Hg10 mi
2:56 AM54 °FLow clouds.12 mph83%30.03 "Hg10 mi
1:56 AM54 °FLow clouds.12 mph86%30.03 "Hg10 mi
12:56 AM54 °FLow clouds.10 mph86%30.03 "Hg10 mi
11:56 PM
Wed, May 27
54 °FLow clouds.14 mph86%30.04 "Hg10 mi
10:56 PM55 °FLow clouds.9 mph83%30.04 "Hg10 mi
9:56 PM55 °FMostly cloudy.10 mph83%30.04 "Hg10 mi
8:56 PM56 °FPartly sunny.17 mph81%30.03 "Hg10 mi
7:56 PM57 °FPartly sunny.13 mph81%30.02 "Hg10 mi
6:56 PM58 °FPartly sunny.14 mph78%30.01 "Hg10 mi
5:56 PM58 °FPartly sunny.13 mph78%30.02 "Hg10 mi
4:56 PM59 °FPartly sunny.20 mph72%30.03 "Hg10 mi
3:56 PM61 °FPartly sunny.18 mph65%30.03 "Hg10 mi
2:56 PM62 °FPassing clouds.21 mph60%30.03 "Hg10 mi
Weather by CustomWeather, © 2015

See weather overviewHow to use our weather pages